Weather History for Banff, AB

Change the Weather History Date:

Friday, August 2, 2013

  Actual Average Record
Temperature  
Mean Temperature 54 °F -  
Max Temperature 60 °F - - ()
Min Temperature 49 °F - - ()
Degree Days  
Heating Degree Days 10    
Growing Degree Days 4 (Base 50)    
Moisture  
Dew Point 51 °F    
Average Humidity 87    
Maximum Humidity 95    
Minimum Humidity 62    
Precipitation  
Precipitation 0.03 in - - ()
Sea Level Pressure  
Sea Level Pressure 30.09 in    
Wind  
Wind Speed 3 mph ()    
Max Wind Speed 8 mph    
Max Gust Speed -    
T = Trace of Precipitation, MM = Missing Value Source: Averaged Metar Reports

Daily Weather History Graph

Daily Weather History Graph

Search for Another Location

Airport:

Trip Planner

Search our weather history database for the weather conditions in past years. The results will help you decide how hot, cold, wet, or windy it might be!

Date:

Astronomy

Aug. 02, 2013 Rise Set
Actual Time 6:09 AM MDT 9:26 PM MDT
Civil Twilight 5:29 AM MDT 10:06 PM MDT
Nautical Twilight 4:36 AM MDT 10:58 PM MDT
Astronomical Twilight 3:24 AM MDT 12:09 AM MDT
Moon 2:28 AM MDT (8/2) 6:32 PM MDT (8/2)
Length of Visible Light 16h 37m
Length of Day
15h 17m
Waning Crescent, 15% of the Moon is Illuminated
Aug 2
Waning Crescent
Aug 6
New
Aug 14
First Quarter
Aug 20
Full
Aug 28
Last Quarter

Hourly Weather History & Observations

Time (MDT) Temp. Dew Point Humidity Pressure Visibility Wind Dir Wind Speed Gust Speed Precip Events Conditions
12:00 AM 53.1 °F 51.4 °F 94% 30.04 in - East 2.3 mph - N/A   Unknown
1:00 AM 52.9 °F 50.9 °F 93% 30.03 in - East 3.5 mph - N/A   Unknown
2:00 AM 53.4 °F 51.4 °F 93% 30.04 in - ENE 4.6 mph - N/A   Unknown
3:00 AM 53.2 °F 50.5 °F 91% 30.06 in - ENE 3.5 mph - N/A   Unknown
4:00 AM 52.7 °F 50.5 °F 92% 30.04 in - East 3.5 mph - N/A   Unknown
5:00 AM 52.7 °F 50.5 °F 92% 30.04 in - ENE 2.3 mph - N/A   Unknown
6:00 AM 53.1 °F 51.1 °F 93% 30.04 in - East 3.5 mph - N/A   Unknown
7:00 AM 52.5 °F 50.9 °F 94% 30.06 in - NNE 3.5 mph - N/A   Unknown
8:00 AM 52.9 °F 51.3 °F 94% 30.06 in - East 2.3 mph - N/A   Unknown
9:00 AM 53.8 °F 52.0 °F 94% 30.06 in - East 1.2 mph - N/A   Unknown
10:00 AM 53.8 °F 50.7 °F 89% 30.08 in - East 3.5 mph - N/A   Unknown
11:00 AM 57.2 °F 52.3 °F 84% 30.07 in - East 3.5 mph - 0.02 in   Unknown
12:00 PM 54.7 °F 52.0 °F 91% 30.09 in - NNE 4.6 mph - N/A   Unknown
1:00 PM 58.3 °F 51.6 °F 78% 30.08 in - ENE 1.2 mph - 0.01 in   Unknown
2:00 PM 58.6 °F 50.9 °F 75% 30.08 in - ENE 3.5 mph - N/A   Unknown
3:00 PM 60.3 °F 49.5 °F 68% 30.08 in - East 5.8 mph - N/A   Unknown
4:00 PM 60.8 °F 47.8 °F 62% 30.09 in - ENE 8.1 mph - N/A   Unknown
5:00 PM 55.6 °F 50.7 °F 84% 30.13 in - South 2.3 mph - N/A   Unknown
6:00 PM 56.8 °F 49.5 °F 76% 30.14 in - ENE 2.3 mph - N/A   Unknown
7:00 PM 55.2 °F 49.6 °F 81% 30.14 in - NE 2.3 mph - N/A   Unknown
8:00 PM 54.9 °F 49.8 °F 83% 30.14 in - NNE 1.2 mph - N/A   Unknown
9:00 PM 52.9 °F 49.6 °F 89% 30.15 in - NNE 2.3 mph - N/A   Unknown
10:00 PM 49.6 °F 48.4 °F 95% 30.17 in - NNE 2.3 mph - N/A   Unknown
11:00 PM 50.5 °F 49.1 °F 95% 30.17 in - North 2.3 mph - N/A   Unknown